GW3759 Weather Reports


time (UTC)temp
C
wind
direction
speed
KPH
gust
KPH
rain 1hr
cm
rain 24hr
cm
rain mn
cm
humidity
%
barometer
mb
20260510104502 11 105 0.0 0.0 0.00 0.00 0.00 94 1012.2
20260510103003 11 98 0.0 0.0 0.00 0.00 0.00 94 1012.0
20260510101503 11 263 0.0 0.0 0.00 0.00 0.00 93 1011.9
20260510100005 11 303 0.0 3.2 0.00 0.00 0.00 93 1011.7
20260510094503 11 346 0.0 0.0 0.00 0.00 0.00 93 1011.6
20260510093003 11 346 0.0 3.2 0.00 0.00 0.00 92 1011.5
20260510091503 11 346 0.0 1.6 0.00 0.00 0.00 92 1011.6
20260510090010 11 346 0.0 3.2 0.00 0.00 0.00 93 1011.5
20260510084504 12 346 0.0 3.2 0.00 0.00 0.00 92 1011.4
20260510083005 12 346 0.0 3.2 0.00 0.00 0.00 92 1011.4
20260510081510 12 346 0.0 1.6 0.00 0.00 0.00 92 1011.4
20260510080004 12 346 0.0 0.0 0.00 0.00 0.00 91 1011.1
20260510074504 12 346 0.0 1.6 0.00 0.00 0.00 91 1011.0
20260510073005 12 346 0.0 3.2 0.00 0.00 0.00 91 1010.8
20260510071505 12 346 0.0 6.4 0.00 0.00 0.00 90 1010.7
20260510070007 12 279 0.0 3.2 0.00 0.00 0.00 90 1010.7
20260510064505 13 279 0.0 0.0 0.00 0.00 0.00 89 1010.4
20260510063004 13 279 0.0 0.0 0.00 0.00 0.00 89 1010.5
20260510061511 13 279 0.0 3.2 0.00 0.00 0.00 88 1010.4
20260510060006 13 279 0.0 3.2 0.00 0.00 0.00 87 1010.4
20260510054514 13 279 1.6 3.2 0.00 0.00 0.00 87 1010.4
20260510053005 13 279 0.0 0.0 0.00 0.00 0.00 86 1010.6
20260510051516 13 279 0.0 3.2 0.00 0.00 0.00 85 1010.5
20260510050005 13 279 1.6 3.2 0.00 0.00 0.00 85 1010.5
20260510044507 14 279 1.6 3.2 0.00 0.00 0.00 85 1010.5
20260510043004 14 279 0.0 1.6 0.00 0.00 0.00 86 1010.4
20260510041505 14 279 0.0 3.2 0.00 0.00 0.00 84 1010.4
20260510040010 15 279 0.0 1.6 0.00 0.00 0.00 82 1010.5
20260510034508 15 279 0.0 1.6 0.00 0.00 0.00 83 1010.4
20260510033007 15 279 0.0 0.0 0.00 0.00 0.00 82 1010.2
20260510031505 15 279 0.0 0.0 0.00 0.00 0.00 81 1010.0
20260510030003 15 279 0.0 1.6 0.00 0.00 0.00 78 1010.0
20260510024512 16 279 0.0 0.0 0.00 0.00 0.00 78 1009.9
20260510023012 16 279 0.0 0.0 0.00 0.00 0.00 76 1009.8
20260510021514 16 279 0.0 0.0 0.00 0.00 0.00 74 1009.8
20260510020005 16 279 0.0 0.0 0.00 0.00 0.00 72 1009.5
20260510014507 17 279 0.0 1.6 0.00 0.00 0.00 72 1009.4
20260510013007 17 279 0.0 0.0 0.00 0.00 0.00 70 1009.1
20260510011520 18 279 0.0 0.0 0.00 0.00 0.00 67 1008.9
20260510010004 19 279 0.0 0.0 0.00 0.00 0.00 64 1008.8
20260510004506 20 279 0.0 0.0 0.00 0.00 0.00 62 1008.7
20260510003014 21 133 0.0 0.0 0.00 0.00 0.00 57 1008.5
20260510001508 21 75 0.0 1.6 0.00 0.00 0.00 55 1008.4
20260510000014 22 234 1.6 4.8 0.00 0.00 0.00 54 1008.3
20260509234508 22 140 3.2 9.7 0.00 0.00 0.00 52 1008.1
20260509233011 22 258 1.6 9.7 0.00 0.00 0.00 54 1008.0
20260509231503 23 128 3.2 14.5 0.00 0.00 0.00 50 1008.0
20260509230003 23 196 0.0 3.2 0.00 0.00 0.00 52 1008.0
20260509224502 23 125 0.0 6.4 0.00 0.00 0.00 52 1007.9
20260509223010 22 136 3.2 11.3 0.00 0.00 0.00 52 1008.0
20260509221503 23 113 4.8 22.5 0.00 0.00 0.00 52 1008.0
20260509220003 23 137 6.4 20.9 0.00 0.00 0.00 48 1008.0
20260509214505 23 143 8.0 17.7 0.00 0.00 0.00 49 1008.0
20260509213003 22 153 11.3 22.5 0.00 0.00 0.00 48 1008.0
20260509211502 22 188 9.7 22.5 0.00 0.00 0.00 49 1007.8
20260509210008 23 145 11.3 24.1 0.00 0.00 0.00 48 1007.7
20260509204503 23 146 12.9 27.4 0.00 0.00 0.00 48 1007.7
20260509203003 22 136 11.3 22.5 0.00 0.00 0.00 51 1007.7
20260509201503 22 151 6.4 22.5 0.00 0.00 0.00 52 1007.6
20260509200004 22 132 9.7 19.3 0.00 0.00 0.00 51 1007.7
20260509194504 22 158 9.7 20.9 0.00 0.00 0.00 54 1008.1
20260509193004 22 162 11.3 22.5 0.00 0.00 0.00 54 1008.3
20260509191510 22 167 11.3 24.1 0.00 0.00 0.00 54 1008.5
20260509190014 22 112 4.8 24.1 0.00 0.00 0.00 56 1008.7
20260509184508 22 168 12.9 30.6 0.00 0.00 0.00 54 1008.8
20260509183005 21 155 19.3 32.2 0.00 0.00 0.00 54 1009.0
20260509181503 21 199 8.0 20.9 0.00 0.00 0.00 59 1009.3
20260509180012 20 167 12.9 24.1 0.00 0.00 0.00 61 1009.4
20260509174517 20 167 11.3 19.3 0.00 0.00 0.00 62 1009.7
20260509173013 20 144 14.5 22.5 0.00 0.00 0.00 63 1009.6
20260509171503 20 149 9.7 22.5 0.00 0.00 0.00 63 1010.0
20260509170008 20 175 11.3 25.7 0.00 0.00 0.00 63 1010.0
20260509164504 19 134 9.7 25.7 0.00 0.00 0.00 65 1010.2
20260509163020 19 180 9.7 35.4 0.00 0.00 0.00 64 1010.2
20260509161522 19 156 16.1 27.4 0.00 0.00 0.00 62 1010.2
20260509160006 19 169 16.1 25.7 0.00 0.00 0.00 61 1010.3
20260509154512 19 165 14.5 25.7 0.00 0.00 0.00 63 1010.2
20260509153012 18 162 12.9 29.0 0.00 0.00 0.00 64 1010.4
20260509151507 18 132 14.5 30.6 0.00 0.00 0.00 64 1010.7
20260509150027 17 118 6.4 16.1 0.00 0.00 0.00 66 1010.6
20260509144514 17 131 11.3 17.7 0.00 0.00 0.00 65 1010.7
20260509143023 16 140 9.7 25.7 0.00 0.00 0.00 66 1011.0
20260509141513 16 163 11.3 20.9 0.00 0.00 0.00 67 1011.3
20260509140004 16 89 3.2 16.1 0.00 0.00 0.00 68 1011.3
20260509134508 16 126 9.7 22.5 0.00 0.00 0.00 70 1011.6
20260509133007 15 152 6.4 17.7 0.00 0.00 0.00 71 1011.7
20260509131506 15 167 4.8 11.3 0.00 0.00 0.00 72 1011.6
20260509130004 14 126 4.8 19.3 0.00 0.00 0.00 71 1011.7
20260509124503 13 155 4.8 14.5 0.00 0.00 0.00 72 1011.7
20260509123004 13 165 3.2 19.3 0.00 0.00 0.00 73 1011.7
20260509121523 13 155 8.0 17.7 0.00 0.00 0.00 72 1011.7
20260509120003 13 143 8.0 20.9 0.00 0.00 0.00 74 1011.7
20260509114503 13 171 6.4 16.1 0.00 0.00 0.00 75 1011.8
20260509113004 12 178 4.8 12.9 0.00 0.00 0.00 72 1011.7
20260509111508 12 141 3.2 8.0 0.00 0.00 0.00 73 1011.7
20260509110004 12 140 4.8 12.9 0.00 0.00 0.00 72 1011.7